Spokane, WA
on Friday, January 18, 2013

Friday
Previous Day Next Day
Daily Summary
 ActualAverageRecord
Temperature
Mean Temperature °F 30°F  
Max Temperature 27°F 35°F 54°F (1919)
Min Temperature 10°F 25°F -28°F (1883)
Degree Days
Heating Degree Days 46 35  
Month to date heating degree days 752 654  
Since 1 July heating degree days 3177 3488  
Cooling Degree Days 0 0  
Month to date cooling degree days 0 0  
Year to date cooling degree days 0 0  
Moisture
Dew Point 15°F   
Average Humidity 88    
Maximum Humidity 92    
Minimum Humidity 84    
Precipitation
Precipitation 0.00 in 0.06 in 0.60 in (1932)
Month to date precipitation 1.05 1.12  
Year to date precipitation 1.05 1.12  
Snow
Snow 0.00 in 0.30 in 4.30 in (1913)
Month to date snowfall 11.8 7.7  
Since 1 July snowfall 35.8 29.8  
Snow Depth 2.00 in   
Wind
Wind Speed 1 mph   
Max Wind Speed 6 mph   
Max Gust Speed 8 mph   
Visibility 2 miles   
Events Fog   

Key: T is trace of precipitation, MM is missing value
Source: NWS Daily Summary
Time(PST)TemperatureDew PointHumidity Pressure Visibility Wind DirectionWind SpeedGust SpeedPrecipitationEvents Conditions
12:53 AM 18.0°F 15.1°F 88% 30.41 in 5.0 miles Calm Calm - N/A   Overcast
1:17 AM 19.4°F 15.8°F 86% 30.30 in 4.0 miles SSE 3.5 mph - N/A   Overcast
1:53 AM 19.0°F 16.0°F 88% 30.41 in 1.5 miles South 3.5 mph - N/A   Overcast
2:53 AM 18.0°F 15.1°F 88% 30.40 in 0.2 miles Calm Calm - N/A   Overcast
3:53 AM 19.0°F 17.1°F 92% 30.39 in 0.2 miles Calm Calm - N/A Fog Light Freezing Fog
4:31 AM 19.4°F 15.8°F 86% 30.28 in 0.2 miles ENE 3.5 mph - N/A   Overcast
4:53 AM 19.0°F 16.0°F 88% 30.38 in 0.2 miles ENE 3.5 mph - N/A   Overcast
5:53 AM 19.0°F 16.0°F 88% 30.36 in 0.2 miles Calm Calm - N/A Fog Light Freezing Fog
6:17 AM 19.4°F 15.8°F 86% 30.26 in 0.8 miles NE 3.5 mph - N/A   Overcast
6:28 AM 19.4°F 15.8°F 86% 30.26 in 2.0 miles NNE 3.5 mph - N/A   Overcast
6:53 AM 19.0°F 16.0°F 88% 30.36 in 3.0 miles Calm Calm - N/A   Overcast
7:53 AM 19.0°F 16.0°F 88% 30.37 in 1.5 miles NE 3.5 mph - N/A   Overcast
8:33 AM 19.4°F 15.8°F 86% 30.25 in 3.0 miles South 3.5 mph - N/A   Mostly Cloudy
8:53 AM 19.9°F 17.1°F 89% 30.35 in 4.0 miles Calm Calm - N/A   Mostly Cloudy
9:53 AM 19.9°F 18.0°F 92% 30.37 in 5.0 miles NNE 3.5 mph - N/A   Mostly Cloudy
10:53 AM 21.0°F 18.0°F 88% 30.37 in 4.0 miles NNE 4.6 mph - N/A   Overcast
11:53 AM 21.9°F 19.0°F 89% 30.35 in 5.0 miles Calm Calm - N/A   Mostly Cloudy
12:53 PM 24.1°F 21.0°F 88% 30.32 in 6.0 miles South 4.6 mph - N/A   Mostly Cloudy
1:53 PM 25.0°F 21.9°F 88% 30.29 in 8.0 miles East 3.5 mph - N/A Fog Mostly Cloudy
2:53 PM 24.1°F 21.0°F 88% 30.32 in 7.0 miles North 3.5 mph - N/A Fog Scattered Clouds
3:46 PM 21.2°F 19.4°F 93% 30.23 in 2.0 miles Calm Calm - N/A   Mostly Cloudy
3:53 PM 21.9°F 19.0°F 89% 30.33 in 2.0 miles Calm Calm - N/A   Mostly Cloudy
4:25 PM 21.2°F 19.4°F 93% 30.24 in 2.5 miles Calm Calm - N/A   Mostly Cloudy
4:33 PM 21.2°F 19.4°F 93% 30.23 in 3.0 miles Calm Calm - N/A   Mostly Cloudy
4:53 PM 21.0°F 18.0°F 88% 30.34 in 3.0 miles NE 3.5 mph - N/A   Mostly Cloudy
5:53 PM 19.9°F 18.0°F 92% 30.34 in 4.0 miles Calm Calm - N/A   Mostly Cloudy
6:30 PM 15.8°F 14.0°F 93% 30.24 in 2.0 miles Calm Calm - N/A   Scattered Clouds
6:37 PM 15.8°F 12.2°F 86% 30.24 in 1.0 miles Calm Calm - N/A   Scattered Clouds
6:53 PM 17.1°F 14.0°F 88% 30.36 in 1.0 miles Calm Calm - N/A   Scattered Clouds
7:07 PM 17.6°F 14.0°F 86% 30.25 in 2.0 miles Calm Calm - N/A   Scattered Clouds
7:22 PM 17.6°F 12.2°F 79% 30.25 in 3.0 miles ENE 3.5 mph - N/A   Scattered Clouds
7:53 PM 12.9°F 9.0°F 84% 30.37 in 3.0 miles Calm Calm - N/A   Scattered Clouds
8:11 PM 12.2°F 8.6°F 85% 30.25 in 2.5 miles SSW 3.5 mph - N/A   Scattered Clouds
8:38 PM 12.2°F 10.4°F 92% 30.26 in 1.0 miles Calm Calm - N/A   Scattered Clouds
8:44 PM 12.2°F 10.4°F 92% 30.26 in 0.5 miles Calm Calm - N/A Fog Light Freezing Fog
8:53 PM 12.9°F 10.9°F 92% 30.38 in 0.5 miles Calm Calm - N/A Fog Light Freezing Fog
9:11 PM 12.2°F 10.4°F 92% 30.27 in 0.2 miles Calm Calm - N/A Fog Light Freezing Fog
9:23 PM 12.2°F 8.6°F 85% 30.27 in 0.2 miles Calm Calm - N/A Fog Light Freezing Fog
9:53 PM 12.0°F 10.0°F 92% 30.40 in 0.1 miles Calm Calm - N/A Fog Light Freezing Fog
10:39 PM 12.2°F 8.6°F 85% 30.28 in 0.5 miles Calm Calm - N/A Fog Light Freezing Fog
10:53 PM 12.9°F 10.9°F 92% 30.40 in 0.1 miles Calm Calm - N/A Fog Light Freezing Fog
11:53 PM 12.9°F 10.0°F 88% 30.41 in 0.1 miles Calm Calm - N/A Fog Light Freezing Fog
Moon Phase
Jan. 18 Jan. 18 Jan. 26 Feb. 03 Feb. 10
Sunrise:07:31 AM (PST) Moon Rise:10:36 AM (PST)1/18
Sunset:04:30 PM (PST) Moon Set:No Moon Set/

Copyright © 2014 The Weather Underground, Inc.